Weather in Neringa

Lithuania     55°18′19″N   21°00′24″E
temp.,
°C
wind,
m/s
gust,
m/s
humid.,
%
clouds,
%
prec.,
mm/h
press.,
hPa
HPBL,
m
27 february, sat
sat2723:00+3wnw913860 0.0 1019158
02:00+3nw711870 0.0 1021133
05:00+3nnw813876 0.0 1021181
08:00+2nnw813883 0.0 1024242
11:00+2nnw914850 0.0 1026304
14:00+3nnw813850 0.0 1029271
17:00+2nnw712880 0.0 1029223
20:00+2nw56900 0.0 103091
28 february, sun
sun2823:00+2nw568818 0.0 103079
02:00+3w568559 0.0 103056
05:00+3wnw568362 0.0 102960
08:00+2w689353 0.0 102897
11:00+2w569699 0.0 102785
14:00+3nw679150 0.0 102888
17:00+3nw7108471 0.0 1028104
20:00+3nnw678739 0.0 103089
1 march, mon
mon123:00+3nnw67880 0.0 103083
02:00+3nnw56880 0.0 103248
05:00+3nw45860 0.0 103123
08:00+3wnw56820 0.0 103234
11:00+3w67850 0.0 103176
14:00+3wsw710920 0.0 1030138
17:00+3wsw9159317 0.0 1029233
20:00+3w8129143 0.0 1029181
2 march, tue
tue223:00+3w699235 0.0 102999
02:00+3wnw459017 0.0 103035
05:00+3w45880 0.0 102932
08:00+3w55900 0.0 102939
11:00+2w55930 0.0 102956
14:00+2w56970 0.0 102974
17:00+2w559677 0.0 102997
20:00+2wnw459388 0.1 102999
3 march, wed
wed323:00+1wnw339596 0.0 103066
02:00+1sw229695 0.0 103044
05:000sw339696 0.0 102991
08:000ssw349498 0.0 1028104
11:00+1sse2395100 0.0 102841
14:00+2ssw3494100 0.0 102741
17:00+2sw349146 0.0 102430
20:00+2sw458623 0.0 102329